This is the latest recevied weather packets stored in our database for station/object KA3RQR. If no packets are shown the sender has not sent any weather packets the latest 10 day(s).
| Time | Temp. | Humidity | Pressure | Rain* | Wind** | Luminosity | Snow |
|---|---|---|---|---|---|---|---|
| 1777401841 | 15° C | 70% | 1018.3 hPa | 0 mm | - | 144 W/m² | - |
| 1777401541 | 15° C | 71% | 1018.2 hPa | 0 mm | - | 203 W/m² | - |
| 1777401236 | 15° C | 72% | 1018.1 hPa | 0 mm | - | 179 W/m² | - |
| 1777400932 | 15° C | 71% | 1018.2 hPa | 0 mm | - | 232 W/m² | - |
| 1777400628 | 14.44° C | 72% | 1018.2 hPa | 0 mm | - | 185 W/m² | - |
| 1777400326 | 14.44° C | 72% | 1018.2 hPa | 0 mm | - | 197 W/m² | - |
| 1777400021 | 14.44° C | 73% | 1018.3 hPa | 0 mm | - | 203 W/m² | - |
| 1777399719 | 14.44° C | 75% | 1018.5 hPa | 0 mm | - | 186 W/m² | - |
| 1777399416 | 13.89° C | 75% | 1018.5 hPa | 0 mm | - | 171 W/m² | - |
| 1777399113 | 13.89° C | 75% | 1018.7 hPa | 0 mm | - | 169 W/m² | - |
| 1777398810 | 13.89° C | 75% | 1018.9 hPa | 0 mm | - | 188 W/m² | - |
| 1777398508 | 13.33° C | 77% | 1018.7 hPa | 0 mm | - | 149 W/m² | - |
| 1777398204 | 13.33° C | 76% | 1018.7 hPa | 0 mm | - | 132 W/m² | - |
| 1777397901 | 13.33° C | 76% | 1019 hPa | 0 mm | - | 119 W/m² | - |
| 1777397597 | 13.33° C | 76% | 1019 hPa | 0 mm | - | 153 W/m² | - |
| 1777397293 | 12.78° C | 77% | 1018.9 hPa | 0 mm | - | 159 W/m² | - |
| 1777396990 | 13.33° C | 76% | 1019.1 hPa | 0 mm | - | 135 W/m² | - |
| 1777396686 | 13.33° C | 77% | 1019.1 hPa | 0 mm | - | 168 W/m² | - |
| 1777396383 | 12.78° C | 77% | 1019.1 hPa | 0 mm | - | 189 W/m² | - |
| 1777396080 | 12.22° C | 77% | 1019.3 hPa | 0 mm | - | 186 W/m² | - |
| 1777395775 | 12.22° C | 78% | 1019.4 hPa | 0 mm | - | 129 W/m² | - |
| 1777395470 | 12.22° C | 78% | 1019.5 hPa | 0 mm | - | 85 W/m² | - |
| 1777395168 | 12.22° C | 78% | 1019.6 hPa | 0 mm | - | 62 W/m² | - |
| 1777394865 | 12.22° C | 78% | 1019.8 hPa | 0 mm | - | 67 W/m² | - |
| 1777394561 | 12.22° C | 78% | 1019.5 hPa | 0 mm | - | 77 W/m² | - |
* Rain latest hour (hover to see other rain measurements)
** Current wind speed in m/s (hover to see current wind gust speed)